When you browse on this site, cookies collect data to enhance your experience and personalize the content and advertising you see.
Visit our Privacy Policy to learn more. By continuing to use the site, you agree to this use of cookies and data.
  • In Czech Republic
  • List of Countries
  • For 7 days
  • Water Temperature
  • Weather Map
  • Weather Widgets
  • user-avatar
    Login

    Hourly Weather Siguiri

    Today, 22 September, Sunday

    Time Temperature Precipitation Wind Pressure Humidity
    00:00 +27°C° 0 mm 2 mps 715 mmHg 60%
    01:00 +26°C° 0 mm 2 mps 715 mmHg 62%
    02:00 +26°C° 0 mm 2 mps 714 mmHg 64%
    03:00 +26°C° 0 mm 2 mps 714 mmHg 65%
    04:00 +25°C° 0 mm 2 mps 714 mmHg 67%
    05:00 +25°C° 0 mm 2 mps 714 mmHg 69%
    06:00 +25°C° 0 mm 2 mps 715 mmHg 71%
    07:00 +25°C° 0 mm 2 mps 715 mmHg 74%
    08:00 +27°C° 0 mm 2 mps 716 mmHg 68%
    09:00 +30°C° 0 mm 2 mps 716 mmHg 61%
    10:00 +32°C° 0 mm 2 mps 716 mmHg 54%
    11:00 +34°C° 0 mm 2 mps 716 mmHg 47%
    12:00 +35°C° 0 mm 2 mps 715 mmHg 41%
    13:00 +36°C° 0 mm 2 mps 715 mmHg 36%
    14:00 +37°C° 0 mm 2 mps 714 mmHg 35%
    15:00 +37°C° 0 mm 2 mps 714 mmHg 34%
    16:00 +37°C° 0 mm 2 mps 714 mmHg 33%
    17:00 +35°C° 0 mm 2 mps 714 mmHg 39%
    18:00 +32°C° 0 mm 2 mps 714 mmHg 45%
    19:00 +29°C° 0 mm 2 mps 713 mmHg 51%
    20:00 +29°C° 0 mm 2 mps 714 mmHg 51%
    21:00 +28°C° 0 mm 2 mps 714 mmHg 52%
    22:00 +28°C° 0 mm 2 mps 715 mmHg 52%
    23:00 +27°C° 0 mm 2 mps 715 mmHg 53%

    Tomorrow, 23 September, Monday

    Time Temperature Precipitation Wind Pressure Humidity
    00:00 +27°C° 0 mm 2 mps 714 mmHg 54%
    01:00 +26°C° 0 mm 2 mps 714 mmHg 56%
    02:00 +26°C° 0 mm 2 mps 714 mmHg 57%
    03:00 +26°C° 0 mm 2 mps 714 mmHg 58%
    04:00 +25°C° 0 mm 2 mps 714 mmHg 59%
    05:00 +25°C° 0 mm 2 mps 714 mmHg 64%
    06:00 +25°C° 0 mm 2 mps 715 mmHg 68%
    07:00 +24°C° 0 mm 2 mps 715 mmHg 73%
    08:00 +27°C° 0 mm 2 mps 715 mmHg 67%
    09:00 +29°C° 0 mm 2 mps 716 mmHg 62%
    10:00 +32°C° 0 mm 2 mps 716 mmHg 56%
    11:00 +34°C° 0 mm 2 mps 716 mmHg 49%
    12:00 +35°C° 0 mm 2 mps 716 mmHg 43%
    13:00 +36°C° 0 mm 1 mps 715 mmHg 36%
    14:00 +36°C° 0 mm 1 mps 715 mmHg 35%
    15:00 +36°C° 0 mm 1 mps 714 mmHg 35%
    16:00 +37°C° 0 mm 2 mps 713 mmHg 34%
    17:00 +35°C° 0 mm 2 mps 713 mmHg 39%
    18:00 +32°C° 0 mm 2 mps 714 mmHg 43%
    19:00 +30°C° 0 mm 1 mps 714 mmHg 48%
    20:00 +30°C° 0 mm 2 mps 714 mmHg 49%
    21:00 +29°C° 0 mm 2 mps 714 mmHg 49%
    22:00 +29°C° 0 mm 2 mps 715 mmHg 50%
    23:00 +28°C° 0 mm 2 mps 715 mmHg 54%

    Day after tomorrow, 24 September, Tuesday

    Time Temperature Precipitation Wind Pressure Humidity
    00:00 +27°C° 0 mm 2 mps 715 mmHg 58%
    01:00 +27°C° 0 mm 3 mps 715 mmHg 63%
    02:00 +26°C° 0 mm 3 mps 715 mmHg 66%
    03:00 +26°C° 0 mm 3 mps 714 mmHg 69%
    04:00 +26°C° 0 mm 3 mps 714 mmHg 73%
    05:00 +25°C° 0 mm 3 mps 715 mmHg 75%
    06:00 +25°C° 0 mm 3 mps 715 mmHg 78%
    07:00 +25°C° 0 mm 3 mps 715 mmHg 81%
    08:00 +27°C° 0 mm 3 mps 716 mmHg 74%
    09:00 +30°C° 0 mm 3 mps 716 mmHg 68%
    10:00 +33°C° 0 mm 3 mps 717 mmHg 61%
    11:00 +34°C° 0 mm 3 mps 716 mmHg 55%
    12:00 +35°C° 0 mm 3 mps 715 mmHg 49%
    13:00 +37°C° 0 mm 2 mps 715 mmHg 42%
    14:00 +37°C° 0 mm 2 mps 714 mmHg 41%
    15:00 +37°C° 0 mm 2 mps 714 mmHg 39%
    16:00 +37°C° 0 mm 2 mps 713 mmHg 37%
    17:00 +35°C° 0 mm 2 mps 713 mmHg 42%
    18:00 +32°C° 0 mm 1 mps 713 mmHg 46%
    19:00 +30°C° 0 mm 1 mps 713 mmHg 51%
    20:00 +30°C° 0 mm 1 mps 714 mmHg 52%
    21:00 +29°C° 0 mm 2 mps 714 mmHg 53%
    22:00 +29°C° 0 mm 2 mps 714 mmHg 54%
    23:00 +28°C° 0 mm 2 mps 714 mmHg 57%

    25 September, Wednesday

    Time Temperature Precipitation Wind Pressure Humidity
    00:00 +28°C° 0 mm 3 mps 714 mmHg 59%
    01:00 +27°C° 0 mm 3 mps 714 mmHg 62%
    02:00 +26°C° 0 mm 3 mps 714 mmHg 68%
    03:00 +26°C° 0 mm 3 mps 713 mmHg 74%
    04:00 +25°C° 0 mm 3 mps 713 mmHg 80%
    05:00 +25°C° 0 mm 4 mps 714 mmHg 82%
    06:00 +25°C° 0 mm 4 mps 714 mmHg 84%
    07:00 +25°C° 0 mm 4 mps 715 mmHg 86%
    08:00 +27°C° 0 mm 4 mps 715 mmHg 79%
    09:00 +29°C° 0 mm 4 mps 716 mmHg 73%
    10:00 +32°C° 0 mm 4 mps 716 mmHg 67%
    11:00 +33°C° 0 mm 4 mps 715 mmHg 61%
    12:00 +35°C° 0 mm 4 mps 715 mmHg 55%
    13:00 +36°C° 0 mm 4 mps 714 mmHg 49%
    14:00 +36°C° 0.2 mm 4 mps 714 mmHg 48%
    15:00 +36°C° 0.2 mm 3 mps 713 mmHg 46%
    16:00 +36°C° 0.2 mm 3 mps 713 mmHg 45%
    17:00 +34°C° 0 mm 3 mps 713 mmHg 54%
    18:00 +31°C° 0 mm 3 mps 713 mmHg 63%
    19:00 +29°C° 0 mm 4 mps 712 mmHg 71%
    20:00 +28°C° 0 mm 4 mps 713 mmHg 73%
    21:00 +28°C° 0 mm 5 mps 714 mmHg 75%
    22:00 +27°C° 0 mm 5 mps 714 mmHg 77%
    23:00 +27°C° 0 mm 5 mps 714 mmHg 76%

    26 September, Thursday

    Time Temperature Precipitation Wind Pressure Humidity
    00:00 +26°C° 0 mm 4 mps 715 mmHg 76%
    01:00 +26°C° 0 mm 4 mps 715 mmHg 76%
    02:00 +25°C° 1.2 mm 3 mps 715 mmHg 80%
    03:00 +24°C° 1.2 mm 3 mps 715 mmHg 85%
    04:00 +24°C° 1.2 mm 2 mps 715 mmHg 89%
    05:00 +24°C° 0.1 mm 2 mps 715 mmHg 88%
    06:00 +24°C° 0.1 mm 2 mps 716 mmHg 86%
    07:00 +24°C° 0.1 mm 3 mps 716 mmHg 84%
    08:00 +26°C° 0 mm 3 mps 716 mmHg 78%
    09:00 +28°C° 0 mm 3 mps 717 mmHg 71%
    10:00 +30°C° 0 mm 3 mps 717 mmHg 64%
    11:00 +31°C° 0 mm 3 mps 717 mmHg 59%
    12:00 +34°C° 0 mm 3 mps 716 mmHg 54%
    13:00 +35°C° 0 mm 3 mps 716 mmHg 50%
    14:00 +35°C° 0.3 mm 3 mps 715 mmHg 52%
    15:00 +34°C° 0.3 mm 3 mps 715 mmHg 54%
    16:00 +34°C° 0.3 mm 4 mps 714 mmHg 57%
    17:00 +31°C° 0.5 mm 3 mps 714 mmHg 62%
    18:00 +30°C° 0.5 mm 3 mps 714 mmHg 68%
    19:00 +28°C° 0.5 mm 2 mps 714 mmHg 73%
    20:00 +27°C° 1 mm 3 mps 715 mmHg 78%
    21:00 +27°C° 1 mm 3 mps 715 mmHg 82%
    22:00 +26°C° 1 mm 4 mps 716 mmHg 87%
    23:00 +25°C° 0 mm 3 mps 716 mmHg 87%

    27 September, Friday

    Time Temperature Precipitation Wind Pressure Humidity
    00:00 +25°C° 0 mm 3 mps 715 mmHg 87%
    01:00 +24°C° 0 mm 2 mps 715 mmHg 87%
    02:00 +24°C° 0 mm 2 mps 715 mmHg 87%
    03:00 +24°C° 0 mm 3 mps 715 mmHg 88%
    04:00 +24°C° 0 mm 3 mps 714 mmHg 88%
    05:00 +24°C° 0 mm 3 mps 715 mmHg 87%
    06:00 +24°C° 0 mm 3 mps 715 mmHg 86%
    07:00 +25°C° 0 mm 3 mps 716 mmHg 85%
    08:00 +26°C° 0 mm 4 mps 716 mmHg 79%
    09:00 +28°C° 0 mm 4 mps 716 mmHg 74%
    10:00 +30°C° 0 mm 4 mps 717 mmHg 68%
    11:00 +32°C° 0 mm 4 mps 716 mmHg 63%
    12:00 +34°C° 0 mm 3 mps 716 mmHg 57%
    13:00 +35°C° 0 mm 3 mps 715 mmHg 52%
    14:00 +35°C° 0.1 mm 3 mps 715 mmHg 52%
    15:00 +35°C° 0.1 mm 3 mps 714 mmHg 52%
    16:00 +35°C° 0.1 mm 3 mps 714 mmHg 52%
    17:00 +32°C° 0.2 mm 2 mps 714 mmHg 57%
    18:00 +30°C° 0.2 mm 2 mps 714 mmHg 62%
    19:00 +29°C° 0.2 mm 2 mps 714 mmHg 66%
    20:00 +28°C° 0 mm 3 mps 714 mmHg 70%
    21:00 +27°C° 0 mm 3 mps 715 mmHg 73%
    22:00 +27°C° 0 mm 3 mps 715 mmHg 76%
    23:00 +26°C° 0 mm 4 mps 715 mmHg 77%
    Show more